,,PA_Meas_PMT16A,,PR_Meas_QMR101_102,,RH_Meas_QMH101,,SR_Meas_QMS101,,TA_Meas_QMH101,,GenWind,,GenWind,
time,status,PA,status,PR,status,RH,status,SR,status,TA,status,DirAvg,status,SpdAvg,
2014-05-04, 06:54:04,VALID,916.037,VALID,0,VALID,93.6384,VALID,48.456,VALID,20.2098,VALID,134,VALID,1.36602,
2014-05-04, 06:55:04,VALID,916.068,VALID,0,VALID,93.4173,VALID,49.6378,VALID,20.2489,VALID,139,VALID,1.26016,
2014-05-04, 06:56:04,VALID,916.049,VALID,0,VALID,93.2649,VALID,25.571,VALID,20.2894,VALID,142,VALID,1.72031,
2014-05-04, 06:57:04,VALID,916.062,VALID,0,VALID,93.0209,VALID,60.0596,VALID,20.3479,VALID,140,VALID,1.79297,
2014-05-04, 06:58:04,VALID,916.059,VALID,0,VALID,92.7998,VALID,56.7289,VALID,20.3854,VALID,119,VALID,1.18086,
2014-05-04, 06:59:04,VALID,916.078,VALID,0,VALID,92.5254,VALID,53.6131,VALID,20.4244,VALID,129,VALID,1.90234,
2014-05-04, 07:00:04,VALID,916.079,VALID,0,VALID,92.2814,VALID,54.0429,VALID,20.4829,VALID,135,VALID,1.50156,
2014-05-04, 07:01:04,VALID,916.128,VALID,0,VALID,92.0146,VALID,58.0182,VALID,20.5999,VALID,119,VALID,3.18711,
2014-05-04, 07:02:04,VALID,916.131,VALID,0,VALID,91.542,VALID,65.754,VALID,20.7381,VALID,130,VALID,1.66914,
2014-05-04, 07:03:04,VALID,916.144,VALID,0,VALID,91.0312,VALID,76.3907,VALID,20.7755,VALID,128,VALID,1.70703,
2014-05-04, 07:04:04,VALID,916.154,VALID,0,VALID,90.5357,VALID,86.9199,VALID,20.8746,VALID,130,VALID,2.21836,
2014-05-04, 07:05:04,VALID,916.152,VALID,0,VALID,90.2155,VALID,92.2919,VALID,20.9316,VALID,132,VALID,2.10352,
2014-05-04, 07:06:04,VALID,916.155,VALID,0,VALID,89.9792,VALID,92.8292,VALID,21.0096,VALID,136,VALID,1.66836,
2014-05-04, 07:07:04,VALID,916.201,VALID,0,VALID,89.4913,VALID,90.4654,VALID,21.1266,VALID,142,VALID,2.09961,
2014-05-04, 07:08:04,VALID,916.192,VALID,0,VALID,88.9271,VALID,89.7134,VALID,21.2242,VALID,135,VALID,2.40859,
2014-05-04, 07:09:04,VALID,916.249,VALID,0,VALID,88.5384,VALID,86.3827,VALID,21.3022,VALID,146,VALID,2.31094,
2014-05-04, 07:10:04,VALID,916.258,VALID,0,VALID,87.9437,VALID,76.6055,VALID,21.3998,VALID,134,VALID,2.57813,
2014-05-04, 07:11:04,VALID,916.237,VALID,0,VALID,87.8141,VALID,68.7623,VALID,21.4388,VALID,148,VALID,1.68203,
2014-05-04, 07:12:04,VALID,916.248,VALID,0,VALID,87.2729,VALID,61.9935,VALID,21.4762,VALID,135,VALID,2.29414,
2014-05-04, 07:13:04,VALID,916.243,VALID,0,VALID,86.8688,VALID,58.6629,VALID,21.5754,VALID,126,VALID,2.46406,
2014-05-04, 07:14:04,VALID,916.283,VALID,0,VALID,86.7011,VALID,59.0926,VALID,21.5949,VALID,145,VALID,1.9125,
2014-05-04, 07:15:04,VALID,916.315,VALID,0,VALID,86.8917,VALID,60.7043,VALID,21.5932,VALID,131,VALID,1.38789,
2014-05-04, 07:16:04,VALID,916.311,VALID,0,VALID,86.9374,VALID,62.9605,VALID,21.5949,VALID,137,VALID,1.50898,
2014-05-04, 07:17:04,VALID,916.358,VALID,0,VALID,86.8993,VALID,68.9772,VALID,21.5949,VALID,147,VALID,1.85781,
2014-05-04, 07:18:04,VALID,916.365,VALID,0,VALID,86.846,VALID,82.5148,VALID,21.5949,VALID,140,VALID,2.11797,
2014-05-04, 07:19:04,VALID,916.402,VALID,0,VALID,86.9756,VALID,111.094,VALID,21.5949,VALID,139,VALID,1.7168,
2014-05-04, 07:20:04,VALID,916.414,VALID,0,VALID,86.8383,VALID,126.351,VALID,21.6534,VALID,139,VALID,2.14023,
2014-05-04, 07:21:04,VALID,916.433,VALID,0,VALID,86.9146,VALID,130.756,VALID,21.6908,VALID,143,VALID,1.79258,
2014-05-04, 07:22:04,VALID,916.442,VALID,0,VALID,86.6096,VALID,130.756,VALID,21.7688,VALID,141,VALID,0.680078,
2014-05-04, 07:23:04,VALID,916.452,VALID,0,VALID,86.3504,VALID,124.954,VALID,21.8681,VALID,122,VALID,1.7918,
2014-05-04, 07:24:04,VALID,916.477,VALID,0,VALID,86.0912,VALID,110.664,VALID,21.9461,VALID,138,VALID,1.68008,
2014-05-04, 07:25:04,VALID,916.499,VALID,0,VALID,85.5042,VALID,108.73,VALID,22.003,VALID,124,VALID,2.08672,
2014-05-04, 07:26:04,VALID,916.479,VALID,0,VALID,85.7101,VALID,125.276,VALID,22.042,VALID,117,VALID,1.24375,
2014-05-04, 07:27:04,VALID,916.511,VALID,0,VALID,85.2679,VALID,136.128,VALID,22.081,VALID,136,VALID,2.10039,
2014-05-04, 07:28:04,VALID,916.49,VALID,0,VALID,84.7953,VALID,137.847,VALID,22.1217,VALID,125,VALID,2.09844,
2014-05-04, 07:29:04,VALID,916.513,VALID,0,VALID,84.1168,VALID,165.567,VALID,22.1803,VALID,133,VALID,3.15469,
2014-05-04, 07:30:04,VALID,916.484,VALID,0,VALID,84.315,VALID,158.046,VALID,22.2583,VALID,146,VALID,1.86328,
2014-05-04, 07:31:04,VALID,916.47,VALID,0,VALID,83.7813,VALID,138.921,VALID,22.2567,VALID,123,VALID,2.55625,
2014-05-04, 07:32:04,VALID,916.466,VALID,0,VALID,83.8957,VALID,113.78,VALID,22.2796,VALID,145,VALID,1.475,
2014-05-04, 07:33:04,VALID,916.483,VALID,0,VALID,84.4598,VALID,102.606,VALID,22.2388,VALID,124,VALID,1.9293,
2014-05-04, 07:34:04,VALID,916.523,VALID,0,VALID,84.3836,VALID,97.664,VALID,22.2193,VALID,124,VALID,2.15898,
2014-05-04, 07:35:04,VALID,916.479,VALID,0,VALID,84.4827,VALID,100.672,VALID,22.1803,VALID,136,VALID,2.29141,
2014-05-04, 07:36:04,VALID,916.535,VALID,0,VALID,84.4674,VALID,107.763,VALID,22.1217,VALID,138,VALID,2.88906,
2014-05-04, 07:37:04,VALID,916.54,VALID,0,VALID,84.6123,VALID,115.177,VALID,22.1217,VALID,140,VALID,1.66328,
2014-05-04, 07:38:04,VALID,916.611,VALID,0,VALID,84.8562,VALID,107.656,VALID,22.1413,VALID,146,VALID,1.74258,
2014-05-04, 07:39:04,VALID,916.635,VALID,0,VALID,84.9325,VALID,105.83,VALID,22.0437,VALID,152,VALID,2.38984,
2014-05-04, 07:40:04,VALID,916.671,VALID,0,VALID,85.4128,VALID,107.656,VALID,21.9071,VALID,145,VALID,2.03359,
2014-05-04, 07:41:04,VALID,916.715,VALID,0,VALID,86.1751,VALID,110.664,VALID,21.8095,VALID,155,VALID,1.97383,
2014-05-04, 07:42:04,VALID,916.691,VALID,0,VALID,86.1675,VALID,113.78,VALID,21.751,VALID,155,VALID,2.07656,
2014-05-04, 07:43:04,VALID,916.712,VALID,0,VALID,86.3199,VALID,118.83,VALID,21.7493,VALID,133,VALID,1.59766,
2014-05-04, 07:44:04,VALID,916.709,VALID,0,VALID,86.2437,VALID,126.995,VALID,21.7705,VALID,146,VALID,1.86328,
2014-05-04, 07:45:04,VALID,916.718,VALID,0,VALID,86.5486,VALID,142.682,VALID,21.7493,VALID,146,VALID,2.13438,
2014-05-04, 07:46:04,VALID,916.719,VALID,0,VALID,86.5486,VALID,176.741,VALID,21.7705,VALID,159,VALID,1.675,
2014-05-04, 07:47:04,VALID,916.74,VALID,0,VALID,85.8854,VALID,163.848,VALID,21.829,VALID,145,VALID,1.79375,
2014-05-04, 07:48:04,VALID,916.717,VALID,0,VALID,86.6401,VALID,195.865,VALID,21.8876,VALID,162,VALID,0.978516,
2014-05-04, 07:49:04,VALID,916.75,VALID,0,VALID,86.0989,VALID,197.047,VALID,21.9266,VALID,152,VALID,2.16719,
2014-05-04, 07:50:04,VALID,916.763,VALID,0,VALID,86.076,VALID,185.014,VALID,21.9054,VALID,157,VALID,1.19023,
2014-05-04, 07:51:04,VALID,916.736,VALID,0,VALID,85.7482,VALID,213.271,VALID,21.9054,VALID,158,VALID,1.6207,
2014-05-04, 07:52:04,VALID,916.788,VALID,0,VALID,85.5881,VALID,248.726,VALID,21.9444,VALID,181,VALID,2.20469,
2014-05-04, 07:53:04,VALID,916.791,VALID,0,VALID,84.9401,VALID,274.942,VALID,22.0225,VALID,160,VALID,1.76641,
2014-05-04, 07:54:04,VALID,916.78,VALID,0,VALID,85.3289,VALID,285.471,VALID,22.1786,VALID,163,VALID,1.60977,
2014-05-04, 07:55:04,VALID,916.801,VALID,0,VALID,85.6643,VALID,314.588,VALID,22.2974,VALID,158,VALID,1.25977,
2014-05-04, 07:56:04,VALID,916.854,VALID,0,VALID,83.7661,VALID,294.066,VALID,22.395,VALID,146,VALID,1.89297,
2014-05-04, 07:57:04,VALID,916.897,VALID,0,VALID,82.8818,VALID,271.611,VALID,22.4925,VALID,160,VALID,2.16484,
2014-05-04, 07:58:04,VALID,916.908,VALID,0,VALID,82.5768,VALID,304.918,VALID,22.4908,VALID,152,VALID,2.36875,
2014-05-04, 07:59:04,VALID,916.949,VALID,0,VALID,83.0038,VALID,287.942,VALID,22.5494,VALID,143,VALID,2.34258,
2014-05-04, 08:00:04,VALID,916.955,VALID,0,VALID,81.9822,VALID,272.471,VALID,22.6079,VALID,135,VALID,1.97344,
2014-05-04, 08:01:04,VALID,916.968,VALID,0,VALID,82.7369,VALID,325.869,VALID,22.647,VALID,126,VALID,1.18594,
2014-05-04, 08:02:04,VALID,916.978,VALID,0,VALID,82.2795,VALID,284.827,VALID,22.7836,VALID,153,VALID,1.36719,
2014-05-04, 08:03:04,VALID,917,VALID,0,VALID,80.549,VALID,220.469,VALID,22.8421,VALID,129,VALID,2.29141,
2014-05-04, 08:04:04,VALID,917.044,VALID,0,VALID,80.9226,VALID,191.675,VALID,22.8616,VALID,126,VALID,1.00391,
2014-05-04, 08:05:04,VALID,917.069,VALID,0,VALID,81.2961,VALID,178.782,VALID,22.9397,VALID,130,VALID,1.32031,
2014-05-04, 08:06:04,VALID,917.094,VALID,0,VALID,82.2643,VALID,175.237,VALID,22.9007,VALID,151,VALID,1.56758,
2014-05-04, 08:07:04,VALID,917.064,VALID,0,VALID,80.549,VALID,184.369,VALID,22.8812,VALID,162,VALID,0.617969,
2014-05-04, 08:08:04,VALID,917.076,VALID,0,VALID,81.8526,VALID,186.41,VALID,22.9592,VALID,149,VALID,1.58633,
2014-05-04, 08:09:04,VALID,917.057,VALID,0,VALID,81.5248,VALID,163.955,VALID,22.9007,VALID,160,VALID,1.94414,
2014-05-04, 08:10:04,VALID,917.069,VALID,0,VALID,82.2338,VALID,167.286,VALID,22.8031,VALID,154,VALID,2.09844,
2014-05-04, 08:11:04,VALID,917.055,VALID,0,VALID,82.2948,VALID,159.228,VALID,22.7055,VALID,166,VALID,1.38242,
2014-05-04, 08:12:04,VALID,917.039,VALID,0,VALID,82.9809,VALID,163.096,VALID,22.6452,VALID,158,VALID,1.77578,
2014-05-04, 08:13:04,VALID,917.058,VALID,0,VALID,83.667,VALID,163.633,VALID,22.6274,VALID,161,VALID,1.04844,
2014-05-04, 08:14:04,VALID,917.015,VALID,0,VALID,83.5298,VALID,170.294,VALID,22.5867,VALID,160,VALID,1.025,
2014-05-04, 08:15:04,VALID,917.049,VALID,0,VALID,84.0253,VALID,160.087,VALID,22.6274,VALID,163,VALID,1.08672,
2014-05-04, 08:16:04,VALID,917.062,VALID,0,VALID,84.132,VALID,241.528,VALID,22.6274,VALID,152,VALID,1.45039,
2014-05-04, 08:17:04,VALID,917.073,VALID,0,VALID,82.1194,VALID,288.265,VALID,22.5867,VALID,127,VALID,1.4168,
2014-05-04, 08:18:04,VALID,917.098,VALID,0,VALID,83.019,VALID,327.91,VALID,22.6665,VALID,151,VALID,1.80664,
2014-05-04, 08:19:04,VALID,917.091,VALID,0,VALID,83.0419,VALID,272.148,VALID,22.6647,VALID,133,VALID,2.20352,
2014-05-04, 08:20:04,VALID,917.102,VALID,0,VALID,83.0114,VALID,349.613,VALID,22.7428,VALID,149,VALID,1.77109,
2014-05-04, 08:21:04,VALID,917.164,VALID,0,VALID,83.2629,VALID,340.051,VALID,22.8014,VALID,153,VALID,1.76367,
2014-05-04, 08:22:04,VALID,917.177,VALID,0,VALID,81.5019,VALID,364.118,VALID,22.8616,VALID,147,VALID,1.94375,
2014-05-04, 08:23:04,VALID,917.152,VALID,0,VALID,81.7535,VALID,444.914,VALID,22.9787,VALID,178,VALID,1.90117,
2014-05-04, 08:24:04,VALID,917.153,VALID,0,VALID,80.4347,VALID,454.046,VALID,23.1154,VALID,166,VALID,1.96289,
2014-05-04, 08:25:04,VALID,917.179,VALID,0,VALID,80.732,VALID,306.422,VALID,23.1722,VALID,161,VALID,1.94375,
2014-05-04, 08:26:04,VALID,917.173,VALID,0,VALID,80.9073,VALID,276.876,VALID,23.1917,VALID,174,VALID,1.52305,
2014-05-04, 08:27:04,VALID,917.178,VALID,0,VALID,80.8921,VALID,392.053,VALID,23.2307,VALID,134,VALID,2.15937,
2014-05-04, 08:28:04,VALID,917.181,VALID,0,VALID,79.2988,VALID,392.053,VALID,23.2698,VALID,178,VALID,1.96914,
2014-05-04, 08:29:04,VALID,917.172,VALID,0,VALID,79.8095,VALID,271.289,VALID,23.2893,VALID,147,VALID,1.14375,
2014-05-04, 08:30:04,VALID,917.181,VALID,0,VALID,80.5566,VALID,227.238,VALID,23.3674,VALID,141,VALID,1.36016,
2014-05-04, 08:31:04,VALID,917.183,VALID,0,VALID,80.4652,VALID,331.456,VALID,23.4241,VALID,127,VALID,1.38242,
2014-05-04, 08:32:04,VALID,917.197,VALID,0,VALID,79.5122,VALID,323.935,VALID,23.3461,VALID,162,VALID,1.62695,
2014-05-04, 08:33:04,VALID,917.187,VALID,0,VALID,80.9226,VALID,210.262,VALID,23.3656,VALID,152,VALID,1.4457,
2014-05-04, 08:34:04,VALID,917.201,VALID,0,VALID,81.0445,VALID,256.032,VALID,23.4046,VALID,148,VALID,1.11719,
2014-05-04, 08:35:04,VALID,917.178,VALID,0,VALID,79.4284,VALID,245.61,VALID,23.4454,VALID,172,VALID,2.88906,
2014-05-04, 08:36:04,VALID,917.181,VALID,0,VALID,79.1997,VALID,214.238,VALID,23.3851,VALID,176,VALID,1.86719,
2014-05-04, 08:37:04,VALID,917.201,VALID,0,VALID,80.0154,VALID,211.552,VALID,23.3283,VALID,142,VALID,1.70898,
2014-05-04, 08:38:04,VALID,917.167,VALID,0,VALID,79.9773,VALID,240.131,VALID,23.2911,VALID,83,VALID,1.66953,
2014-05-04, 08:39:04,VALID,917.189,VALID,0,VALID,79.9391,VALID,240.131,VALID,23.3496,VALID,129,VALID,1.15664,
2014-05-04, 08:40:04,VALID,917.242,VALID,0,VALID,80.1907,VALID,231.965,VALID,23.3691,VALID,152,VALID,1.61563,
2014-05-04, 08:41:04,VALID,917.205,VALID,0,VALID,80.0764,VALID,310.075,VALID,23.3088,VALID,159,VALID,1.475,
2014-05-04, 08:42:04,VALID,917.244,VALID,0,VALID,81.0369,VALID,331.993,VALID,23.3887,VALID,162,VALID,1.97383,
2014-05-04, 08:43:04,VALID,917.217,VALID,0,VALID,79.7943,VALID,283.645,VALID,23.3691,VALID,187,VALID,1.83633,
2014-05-04, 08:44:04,VALID,917.222,VALID,0,VALID,81.2275,VALID,215.527,VALID,23.4277,VALID,174,VALID,1.08516,
2014-05-04, 08:45:04,VALID,917.213,VALID,0,VALID,80.0078,VALID,218.213,VALID,23.4259,VALID,155,VALID,1.67734,
2014-05-04, 08:46:04,VALID,917.184,VALID,0,VALID,80.0001,VALID,169.327,VALID,23.4454,VALID,174,VALID,0.912109,
2014-05-04, 08:47:04,VALID,917.186,VALID,0,VALID,81.3647,VALID,227.238,VALID,23.4845,VALID,158,VALID,1.22187,
2014-05-04, 08:48:04,VALID,917.197,VALID,0,VALID,80.3737,VALID,253.454,VALID,23.465,VALID,169,VALID,1.7168,
2014-05-04, 08:49:04,VALID,917.186,VALID,0,VALID,80.5719,VALID,268.281,VALID,23.4064,VALID,154,VALID,1.49961,
2014-05-04, 08:50:04,VALID,917.167,VALID,0,VALID,82.432,VALID,327.051,VALID,23.3869,VALID,170,VALID,1.84531,
2014-05-04, 08:51:04,VALID,917.154,VALID,0,VALID,83.3925,VALID,245.288,VALID,23.4454,VALID,181,VALID,1.07969,
2014-05-04, 08:52:04,VALID,917.166,VALID,0,VALID,81.7383,VALID,286.116,VALID,23.5643,VALID,186,VALID,1.11797,
2014-05-04, 08:53:04,VALID,917.155,VALID,0,VALID,82.0813,VALID,438.897,VALID,23.662,VALID,151,VALID,1.43555,
2014-05-04, 08:54:04,VALID,917.165,VALID,0,VALID,78.8033,VALID,449.104,VALID,23.7187,VALID,167,VALID,2.34297,
2014-05-04, 08:55:04,VALID,917.17,VALID,0,VALID,79.1082,VALID,567.074,VALID,23.7755,VALID,176,VALID,1.83242,
2014-05-04, 08:56:04,VALID,917.184,VALID,0,VALID,79.4589,VALID,556.115,VALID,23.8749,VALID,171,VALID,1.27305,
2014-05-04, 08:57:04,VALID,917.171,VALID,0,VALID,79.6952,VALID,303.844,VALID,24.0701,VALID,169,VALID,0.992578,
2014-05-04, 08:58:04,VALID,917.185,VALID,0,VALID,77.4692,VALID,335.109,VALID,24.1873,VALID,180,VALID,1.82031,
2014-05-04, 08:59:04,VALID,917.197,VALID,0,VALID,78.262,VALID,292.347,VALID,24.1873,VALID,150,VALID,1.63047,
2014-05-04, 09:00:04,VALID,917.205,VALID,0,VALID,76.9279,VALID,439.112,VALID,24.1092,VALID,148,VALID,1.91172,
2014-05-04, 09:01:04,VALID,917.171,VALID,0,VALID,77.9952,VALID,471.022,VALID,24.1482,VALID,146,VALID,1.49609,
2014-05-04, 09:02:04,VALID,917.203,VALID,0,VALID,77.7055,VALID,489.609,VALID,24.3435,VALID,130,VALID,0.442969,
2014-05-04, 09:03:04,VALID,917.17,VALID,0,VALID,77.7817,VALID,541.396,VALID,24.4411,VALID,166,VALID,2.06211,
2014-05-04, 09:04:04,VALID,917.168,VALID,0,VALID,77.4692,VALID,609.406,VALID,24.4625,VALID,177,VALID,1.41602,
2014-05-04, 09:05:04,VALID,917.143,VALID,0,VALID,76.4552,VALID,321.679,VALID,24.4606,VALID,145,VALID,2.10547,
2014-05-04, 09:06:04,VALID,917.134,VALID,0,VALID,76.6077,VALID,233.899,VALID,24.3239,VALID,157,VALID,2.4793,
2014-05-04, 09:07:04,VALID,917.116,VALID,0,VALID,78.2086,VALID,392.483,VALID,24.2849,VALID,174,VALID,2.10156,
2014-05-04, 09:08:04,VALID,917.102,VALID,0,VALID,77.4539,VALID,641.316,VALID,24.2263,VALID,161,VALID,2.35469,
2014-05-04, 09:09:04,VALID,917.128,VALID,0,VALID,78.8642,VALID,362.399,VALID,24.2635,VALID,141,VALID,1.56562,
2014-05-04, 09:10:04,VALID,917.134,VALID,0,VALID,76.905,VALID,229.709,VALID,24.363,VALID,160,VALID,1.83711,
2014-05-04, 09:11:04,VALID,917.136,VALID,0,VALID,78.201,VALID,298.042,VALID,24.3435,VALID,146,VALID,1.575,
2014-05-04, 09:12:04,VALID,917.125,VALID,0,VALID,77.9723,VALID,422.244,VALID,24.363,VALID,125,VALID,1.39219,
2014-05-04, 09:13:04,VALID,917.104,VALID,0,VALID,78.3611,VALID,586.736,VALID,24.3416,VALID,161,VALID,1.69375,
2014-05-04, 09:14:04,VALID,917.12,VALID,0,VALID,79.1844,VALID,688.268,VALID,24.4002,VALID,161,VALID,0.873828,
2014-05-04, 09:15:04,VALID,917.128,VALID,0,VALID,77.5225,VALID,655.498,VALID,24.4587,VALID,160,VALID,2.07969,
2014-05-04, 09:16:04,VALID,917.138,VALID,0,VALID,77.0727,VALID,323.72,VALID,24.5759,VALID,166,VALID,1.06875,
2014-05-04, 09:17:04,VALID,917.134,VALID,0,VALID,78.4526,VALID,323.29,VALID,24.5973,VALID,145,VALID,0.931641,
2014-05-04, 09:18:04,VALID,917.142,VALID,0,VALID,78.971,VALID,302.232,VALID,24.5954,VALID,152,VALID,1.16992,
2014-05-04, 09:19:04,VALID,917.144,VALID,0,VALID,77.6064,VALID,318.133,VALID,24.693,VALID,146,VALID,1.18711,
2014-05-04, 09:20:04,VALID,917.138,VALID,0,VALID,78.666,VALID,338.655,VALID,24.7535,VALID,148,VALID,1.60977,
2014-05-04, 09:21:04,VALID,917.162,VALID,0,VALID,76.5315,VALID,286.546,VALID,24.7144,VALID,155,VALID,2.41133,
2014-05-04, 09:22:04,VALID,917.115,VALID,0,VALID,76.379,VALID,289.017,VALID,24.6363,VALID,166,VALID,2.06406,
2014-05-04, 09:23:04,VALID,917.142,VALID,0,VALID,77.3014,VALID,278.273,VALID,24.5368,VALID,152,VALID,1.86445,
2014-05-04, 09:24:04,VALID,917.102,VALID,0,VALID,77.027,VALID,432.558,VALID,24.4978,VALID,185,VALID,1.83281,
2014-05-04, 09:25:04,VALID,917.091,VALID,0,VALID,77.5911,VALID,326.621,VALID,24.4997,VALID,164,VALID,1.76289,
2014-05-04, 09:26:04,VALID,917.131,VALID,0,VALID,78.2772,VALID,363.044,VALID,24.4783,VALID,142,VALID,2.07031,
2014-05-04, 09:27:04,VALID,917.083,VALID,0,VALID,78.1629,VALID,718.566,VALID,24.5173,VALID,149,VALID,3.05742,
2014-05-04, 09:28:04,VALID,917.077,VALID,0,VALID,79.4512,VALID,704.921,VALID,24.7302,VALID,119,VALID,2.48828,
2014-05-04, 09:29:04,VALID,917.069,VALID,0,VALID,78.1324,VALID,738.98,VALID,24.9274,VALID,94,VALID,0.98125,
2014-05-04, 09:30:04,VALID,917.042,VALID,0,VALID,76.6077,VALID,340.481,VALID,25.2007,VALID,56,VALID,2.1625,
2014-05-04, 09:31:04,VALID,917.05,VALID,0,VALID,76.905,VALID,266.884,VALID,25.396,VALID,148,VALID,1.70664,
2014-05-04, 09:32:04,VALID,917.049,VALID,0,VALID,74.0767,VALID,267.099,VALID,25.396,VALID,151,VALID,1.73945,
2014-05-04, 09:33:04,VALID,917.014,VALID,0,VALID,75.6014,VALID,750.584,VALID,25.3765,VALID,132,VALID,1.07383,
2014-05-04, 09:34:04,VALID,917.002,VALID,0,VALID,76.1046,VALID,715.343,VALID,25.396,VALID,113,VALID,1.45625,
2014-05-04, 09:35:04,VALID,916.979,VALID,0,VALID,75.0602,VALID,716.203,VALID,25.4937,VALID,73,VALID,2.13555,
2014-05-04, 09:36:04,VALID,917.024,VALID,0,VALID,75.144,VALID,739.195,VALID,25.6304,VALID,151,VALID,1.88125,
2014-05-04, 09:37:04,VALID,916.986,VALID,0,VALID,73.1086,VALID,718.244,VALID,25.728,VALID,119,VALID,2.09453,
2014-05-04, 09:38:04,VALID,917.028,VALID,0,VALID,72.7579,VALID,334.142,VALID,25.6909,VALID,153,VALID,2.47969,
2014-05-04, 09:39:04,VALID,917.016,VALID,0,VALID,74.0462,VALID,327.158,VALID,25.5737,VALID,128,VALID,1.84961,
2014-05-04, 09:40:04,VALID,917.033,VALID,0,VALID,75.0068,VALID,776.262,VALID,25.437,VALID,141,VALID,2.38125,
2014-05-04, 09:41:04,VALID,917.016,VALID,0,VALID,74.214,VALID,443.195,VALID,25.3003,VALID,159,VALID,2.01953,
2014-05-04, 09:42:04,VALID,917.031,VALID,0,VALID,75.3651,VALID,835.247,VALID,25.1812,VALID,155,VALID,1.88008,
2014-05-04, 09:43:04,VALID,917.044,VALID,0,VALID,78.0104,VALID,889.828,VALID,25.2808,VALID,90,VALID,1.72031,
2014-05-04, 09:44:04,VALID,917.041,VALID,0,VALID,76.8821,VALID,860.174,VALID,25.437,VALID,134,VALID,1.65195,
2014-05-04, 09:45:04,VALID,917.009,VALID,0,VALID,73.0018,VALID,768.419,VALID,25.6323,VALID,164,VALID,3.0707,
2014-05-04, 09:46:04,VALID,917.004,VALID,0,VALID,73.0095,VALID,743.17,VALID,25.6499,VALID,168,VALID,2.27266,
2014-05-04, 09:47:04,VALID,916.983,VALID,0,VALID,73.2915,VALID,417.946,VALID,25.7476,VALID,182,VALID,1.70703,
2014-05-04, 09:48:04,VALID,916.95,VALID,0,VALID,73.5888,VALID,405.268,VALID,25.9038,VALID,138,VALID,1.98516,
2014-05-04, 09:49:04,VALID,916.973,VALID,0,VALID,72.5139,VALID,359.283,VALID,25.7085,VALID,137,VALID,3.28164,
2014-05-04, 09:50:04,VALID,916.935,VALID,0,VALID,73.3068,VALID,349.076,VALID,25.4937,VALID,165,VALID,2.2832,
2014-05-04, 09:51:04,VALID,916.951,VALID,0,VALID,74.4274,VALID,388.077,VALID,25.4156,VALID,85,VALID,2.25352,
2014-05-04, 09:52:04,VALID,916.937,VALID,0,VALID,72.9485,VALID,603.604,VALID,25.3355,VALID,117,VALID,2.81328,
2014-05-04, 09:53:04,VALID,916.961,VALID,0,VALID,74.153,VALID,382.705,VALID,25.2984,VALID,126,VALID,2.06094,
2014-05-04, 09:54:04,VALID,916.926,VALID,0,VALID,73.8328,VALID,364.225,VALID,25.3374,VALID,175,VALID,1.73125,
2014-05-04, 09:55:04,VALID,916.922,VALID,0,VALID,73.6498,VALID,423.533,VALID,25.437,VALID,151,VALID,0.696875,
2014-05-04, 09:56:04,VALID,916.883,VALID,0,VALID,73.4364,VALID,466.402,VALID,25.5523,VALID,139,VALID,1.36719,
2014-05-04, 09:57:04,VALID,916.907,VALID,0,VALID,73.3906,VALID,404.946,VALID,25.6089,VALID,90,VALID,1.91328,
2014-05-04, 09:58:04,VALID,916.902,VALID,0,VALID,73.3754,VALID,320.497,VALID,25.689,VALID,130,VALID,0.998047,
2014-05-04, 09:59:04,VALID,916.886,VALID,0,VALID,73.7489,VALID,716.418,VALID,25.7866,VALID,143,VALID,0.944141,
2014-05-04, 10:00:04,VALID,916.913,VALID,0,VALID,72.6207,VALID,873.174,VALID,25.98,VALID,81,VALID,1.74609,
2014-05-04, 10:01:04,VALID,916.91,VALID,0,VALID,71.0731,VALID,337.688,VALID,26.1578,VALID,114,VALID,0.526953,
2014-05-04, 10:02:04,VALID,916.91,VALID,0,VALID,70.4937,VALID,862,VALID,26.275,VALID,96,VALID,2.1668,
2014-05-04, 10:03:04,VALID,916.894,VALID,0,VALID,70.5318,VALID,390.226,VALID,26.314,VALID,194,VALID,1.14766,
2014-05-04, 10:04:04,VALID,916.906,VALID,0,VALID,72.613,VALID,343.274,VALID,26.5485,VALID,8,VALID,1.14023,
2014-05-04, 10:05:04,VALID,916.932,VALID,0,VALID,67.9399,VALID,827.619,VALID,26.7243,VALID,126,VALID,1.7582,
2014-05-04, 10:06:04,VALID,916.903,VALID,0,VALID,69.9143,VALID,461.245,VALID,26.605,VALID,41,VALID,1.35391,
2014-05-04, 10:07:04,VALID,916.949,VALID,0,VALID,68.8471,VALID,780.13,VALID,26.4488,VALID,120,VALID,1.99258,
2014-05-04, 10:08:04,VALID,916.898,VALID,0,VALID,69.0986,VALID,327.481,VALID,26.314,VALID,144,VALID,1.75586,
2014-05-04, 10:09:04,VALID,916.897,VALID,0,VALID,69.1901,VALID,309.216,VALID,26.0601,VALID,146,VALID,2.52891,
2014-05-04, 10:10:04,VALID,916.86,VALID,0,VALID,70.1049,VALID,329.737,VALID,25.9019,VALID,208,VALID,1.60547,
2014-05-04, 10:11:04,VALID,916.89,VALID,0,VALID,71.2103,VALID,850.397,VALID,25.9214,VALID,157,VALID,2.03711,
2014-05-04, 10:12:04,VALID,916.889,VALID,0,VALID,72.0641,VALID,740.914,VALID,25.9624,VALID,153,VALID,2.03008,
2014-05-04, 10:13:04,VALID,916.897,VALID,0,VALID,71.8964,VALID,272.041,VALID,26.0386,VALID,176,VALID,0.751562,
2014-05-04, 10:14:04,VALID,916.924,VALID,0,VALID,71.4314,VALID,864.471,VALID,26.1948,VALID,66,VALID,1.48086,
2014-05-04, 10:15:04,VALID,916.916,VALID,0,VALID,69.5713,VALID,862.323,VALID,26.2339,VALID,37,VALID,2.15859,
2014-05-04, 10:16:04,VALID,916.911,VALID,0,VALID,68.8394,VALID,281.926,VALID,26.4117,VALID,32,VALID,1.16211,
2014-05-04, 10:17:04,VALID,916.89,VALID,0,VALID,68.9081,VALID,331.456,VALID,26.4292,VALID,59,VALID,1.89961,
2014-05-04, 10:18:04,VALID,916.905,VALID,0,VALID,69.9448,VALID,384.532,VALID,26.3316,VALID,82,VALID,1.95078,
2014-05-04, 10:19:04,VALID,916.914,VALID,0,VALID,71.5076,VALID,924.531,VALID,26.1362,VALID,139,VALID,1.46016,
2014-05-04, 10:20:04,VALID,916.9,VALID,0,VALID,69.4569,VALID,449.211,VALID,26.273,VALID,155,VALID,0.984375,
2014-05-04, 10:21:04,VALID,916.937,VALID,0,VALID,69.274,VALID,893.373,VALID,26.3491,VALID,118,VALID,0.627344,
2014-05-04, 10:22:04,VALID,916.927,VALID,0,VALID,70.448,VALID,885.1,VALID,26.605,VALID,102,VALID,1.29336,
2014-05-04, 10:23:04,VALID,916.935,VALID,0,VALID,69.3655,VALID,582.761,VALID,26.7223,VALID,135,VALID,1.71641,
2014-05-04, 10:24:04,VALID,916.948,VALID,0,VALID,70.8825,VALID,215.205,VALID,26.6071,VALID,68,VALID,1.85625,
2014-05-04, 10:25:04,VALID,916.947,VALID,0,VALID,69.5484,VALID,228.957,VALID,26.4898,VALID,165,VALID,1.70078,
2014-05-04, 10:26:04,VALID,916.972,VALID,0,VALID,69.5942,VALID,373.143,VALID,26.1578,VALID,163,VALID,1.51367,
2014-05-04, 10:27:04,VALID,916.967,VALID,0,VALID,70.0668,VALID,390.871,VALID,26.021,VALID,136,VALID,1.98281,
2014-05-04, 10:28:04,VALID,916.936,VALID,0,VALID,71.1189,VALID,908.307,VALID,25.8843,VALID,138,VALID,1.59258,